When you browse on this site, cookies collect data to enhance your experience and personalize the content and advertising you see.
Visit our Privacy Policy to learn more. By continuing to use the site, you agree to this use of cookies and data.
  • In Czech Republic
  • List of Countries
  • For 7 days
  • Water Temperature
  • Satellite Maps
  • Weather Map
  • Weather Widgets
  • user-avatar
    Login

    Hourly Weather Baraki Barak

    Today, 23 May, Thursday

    Time Temperature Precipitation Wind Pressure Humidity
    00:00 +16°C° 0.2 mm 2 mps 597 mmHg 55%
    01:00 +15°C° 0.2 mm 2 mps 597 mmHg 56%
    02:00 +15°C° 0.2 mm 2 mps 597 mmHg 56%
    03:00 +15°C° 0.1 mm 2 mps 596 mmHg 58%
    04:00 +14°C° 0.1 mm 1 mps 596 mmHg 59%
    05:00 +13°C° 0 mm 2 mps 596 mmHg 60%
    06:00 +14°C° 0.1 mm 2 mps 596 mmHg 60%
    07:00 +14°C° 0.1 mm 2 mps 596 mmHg 59%
    08:00 +14°C° 0.1 mm 1 mps 596 mmHg 59%
    09:00 +15°C° 0 mm 1 mps 597 mmHg 56%
    10:00 +18°C° 0 mm 1 mps 597 mmHg 52%
    11:00 +19°C° 0 mm 1 mps 597 mmHg 49%
    12:00 +19°C° 0.3 mm 2 mps 597 mmHg 45%
    13:00 +20°C° 0.3 mm 2 mps 598 mmHg 42%
    14:00 +21°C° 0.3 mm 2 mps 598 mmHg 38%
    15:00 +22°C° 0.2 mm 3 mps 598 mmHg 37%
    16:00 +22°C° 0.2 mm 3 mps 598 mmHg 35%
    17:00 +21°C° 0 mm 3 mps 598 mmHg 41%
    18:00 +20°C° 0.5 mm 3 mps 598 mmHg 44%
    19:00 +19°C° 0.5 mm 4 mps 598 mmHg 47%
    20:00 +18°C° 0.5 mm 4 mps 598 mmHg 50%
    21:00 +18°C° 0.5 mm 4 mps 597 mmHg 53%
    22:00 +17°C° 0.5 mm 3 mps 597 mmHg 56%
    23:00 +16°C° 0.5 mm 3 mps 597 mmHg 59%

    Tomorrow, 24 May, Friday

    Time Temperature Precipitation Wind Pressure Humidity
    00:00 +16°C° 0.3 mm 3 mps 597 mmHg 61%
    01:00 +15°C° 0.3 mm 2 mps 596 mmHg 63%
    02:00 +14°C° 0.3 mm 2 mps 596 mmHg 65%
    03:00 +14°C° 0.2 mm 2 mps 596 mmHg 66%
    04:00 +14°C° 0.2 mm 2 mps 596 mmHg 67%
    05:00 +13°C° 0.2 mm 1 mps 596 mmHg 68%
    06:00 +14°C° 0.1 mm 2 mps 596 mmHg 63%
    07:00 +15°C° 0.1 mm 2 mps 597 mmHg 59%
    08:00 +15°C° 0.1 mm 2 mps 597 mmHg 54%
    09:00 +16°C° 0.2 mm 2 mps 597 mmHg 49%
    10:00 +17°C° 0.2 mm 2 mps 598 mmHg 44%
    11:00 +19°C° 0.2 mm 1 mps 598 mmHg 39%
    12:00 +20°C° 0.1 mm 1 mps 598 mmHg 36%
    13:00 +21°C° 0.1 mm 1 mps 599 mmHg 33%
    14:00 +22°C° 0.1 mm 1 mps 599 mmHg 31%
    15:00 +21°C° 0.1 mm 2 mps 599 mmHg 31%
    16:00 +21°C° 0.1 mm 3 mps 599 mmHg 31%
    17:00 +21°C° 0.1 mm 3 mps 599 mmHg 31%
    18:00 +20°C° 0.3 mm 3 mps 599 mmHg 35%
    19:00 +19°C° 0.3 mm 3 mps 598 mmHg 38%
    20:00 +18°C° 0.3 mm 2 mps 598 mmHg 42%
    21:00 +17°C° 0 mm 2 mps 598 mmHg 43%
    22:00 +17°C° 0 mm 2 mps 599 mmHg 45%
    23:00 +16°C° 0 mm 1 mps 599 mmHg 47%

    Day after tomorrow, 25 May, Saturday

    Time Temperature Precipitation Wind Pressure Humidity
    00:00 +16°C° 0 mm 1 mps 598 mmHg 48%
    01:00 +15°C° 0 mm 1 mps 598 mmHg 49%
    02:00 +15°C° 0 mm 1 mps 598 mmHg 50%
    03:00 +14°C° 0 mm 1 mps 598 mmHg 52%
    04:00 +14°C° 0 mm 1 mps 597 mmHg 53%
    05:00 +14°C° 0 mm 1 mps 597 mmHg 54%
    06:00 +14°C° 0 mm 1 mps 598 mmHg 51%
    07:00 +15°C° 0 mm 1 mps 598 mmHg 48%
    08:00 +16°C° 0 mm 1 mps 599 mmHg 44%
    09:00 +18°C° 0 mm 1 mps 599 mmHg 38%
    10:00 +20°C° 0 mm 1 mps 599 mmHg 32%
    11:00 +21°C° 0 mm 1 mps 599 mmHg 26%
    12:00 +21°C° 0 mm 2 mps 600 mmHg 24%
    13:00 +23°C° 0 mm 2 mps 600 mmHg 22%
    14:00 +24°C° 0 mm 2 mps 600 mmHg 20%
    15:00 +25°C° 0 mm 2 mps 599 mmHg 20%
    16:00 +25°C° 0 mm 2 mps 599 mmHg 19%
    17:00 +25°C° 0 mm 2 mps 599 mmHg 19%
    18:00 +24°C° 0 mm 3 mps 599 mmHg 21%
    19:00 +22°C° 0 mm 4 mps 599 mmHg 23%
    20:00 +21°C° 0 mm 5 mps 599 mmHg 25%
    21:00 +20°C° 0 mm 4 mps 599 mmHg 27%
    22:00 +19°C° 0 mm 4 mps 599 mmHg 29%
    23:00 +18°C° 0 mm 3 mps 599 mmHg 31%

    26 May, Sunday

    Time Temperature Precipitation Wind Pressure Humidity
    00:00 +17°C° 0 mm 3 mps 599 mmHg 34%
    01:00 +17°C° 0 mm 2 mps 598 mmHg 37%
    02:00 +16°C° 0 mm 2 mps 598 mmHg 40%
    03:00 +15°C° 0 mm 2 mps 598 mmHg 43%
    04:00 +14°C° 0 mm 2 mps 598 mmHg 46%
    05:00 +14°C° 0 mm 2 mps 597 mmHg 49%
    06:00 +14°C° 0 mm 2 mps 598 mmHg 43%
    07:00 +15°C° 0 mm 2 mps 598 mmHg 38%
    08:00 +15°C° 0 mm 2 mps 598 mmHg 32%
    09:00 +16°C° 0 mm 2 mps 599 mmHg 28%
    10:00 +17°C° 0 mm 2 mps 599 mmHg 24%
    11:00 +19°C° 0 mm 2 mps 599 mmHg 20%
    12:00 +20°C° 0 mm 2 mps 599 mmHg 18%
    13:00 +21°C° 0 mm 2 mps 600 mmHg 16%
    14:00 +23°C° 0 mm 2 mps 600 mmHg 15%
    15:00 +23°C° 0 mm 2 mps 600 mmHg 14%
    16:00 +24°C° 0 mm 2 mps 600 mmHg 14%
    17:00 +24°C° 0 mm 2 mps 600 mmHg 13%
    18:00 +22°C° 0 mm 3 mps 600 mmHg 15%
    19:00 +21°C° 0 mm 3 mps 600 mmHg 17%
    20:00 +20°C° 0 mm 3 mps 600 mmHg 19%
    21:00 +19°C° 0 mm 2 mps 600 mmHg 21%
    22:00 +18°C° 0 mm 2 mps 600 mmHg 23%
    23:00 +19°C° 0 mm 1 mps 600 mmHg 25%

    27 May, Monday

    Time Temperature Precipitation Wind Pressure Humidity
    00:00 +18°C° 0 mm 1 mps 599 mmHg 27%
    01:00 +16°C° 0 mm 1 mps 599 mmHg 28%
    02:00 +15°C° 0 mm 1 mps 598 mmHg 30%
    03:00 +15°C° 0 mm 1 mps 598 mmHg 32%
    04:00 +14°C° 0 mm 1 mps 598 mmHg 33%
    05:00 +13°C° 0 mm 1 mps 598 mmHg 35%
    06:00 +14°C° 0 mm 1 mps 598 mmHg 31%
    07:00 +15°C° 0 mm 1 mps 599 mmHg 27%
    08:00 +18°C° 0 mm 1 mps 599 mmHg 23%
    09:00 +19°C° 0 mm 1 mps 599 mmHg 19%
    10:00 +20°C° 0 mm 1 mps 600 mmHg 15%
    11:00 +22°C° 0 mm 1 mps 600 mmHg 11%
    12:00 +23°C° 0 mm 1 mps 600 mmHg 9%
    13:00 +24°C° 0 mm 1 mps 600 mmHg 8%
    14:00 +25°C° 0 mm 2 mps 600 mmHg 7%
    15:00 +25°C° 0 mm 2 mps 600 mmHg 7%
    16:00 +26°C° 0 mm 2 mps 600 mmHg 6%
    17:00 +26°C° 0 mm 2 mps 600 mmHg 6%
    18:00 +25°C° 0 mm 2 mps 600 mmHg 8%
    19:00 +24°C° 0 mm 2 mps 600 mmHg 11%
    20:00 +23°C° 0 mm 1 mps 600 mmHg 13%
    21:00 +22°C° 0 mm 1 mps 600 mmHg 14%
    22:00 +21°C° 0 mm 1 mps 600 mmHg 15%
    23:00 +20°C° 0 mm 1 mps 600 mmHg 16%

    28 May, Tuesday

    Time Temperature Precipitation Wind Pressure Humidity
    00:00 +19°C° 0 mm 1 mps 599 mmHg 18%
    01:00 +19°C° 0 mm 1 mps 599 mmHg 19%
    02:00 +18°C° 0 mm 1 mps 598 mmHg 20%
    03:00 +16°C° 0 mm 1 mps 598 mmHg 21%
    04:00 +16°C° 0 mm 1 mps 598 mmHg 21%
    05:00 +15°C° 0 mm 1 mps 597 mmHg 22%
    06:00 +16°C° 0 mm 1 mps 598 mmHg 20%
    07:00 +19°C° 0 mm 1 mps 599 mmHg 17%
    08:00 +20°C° 0 mm 1 mps 600 mmHg 15%
    09:00 +21°C° 0 mm 1 mps 600 mmHg 14%
    10:00 +23°C° 0 mm 1 mps 600 mmHg 12%
    11:00 +24°C° 0 mm 1 mps 601 mmHg 11%
    12:00 +25°C° 0 mm 1 mps 601 mmHg 10%
    13:00 +26°C° 0 mm 1 mps 600 mmHg 9%
    14:00 +27°C° 0 mm 1 mps 600 mmHg 9%
    15:00 +27°C° 0 mm 2 mps 600 mmHg 9%
    16:00 +28°C° 0 mm 2 mps 600 mmHg 9%
    17:00 +28°C° 0 mm 2 mps 600 mmHg 9%
    18:00 +27°C° 0 mm 3 mps 600 mmHg 10%
    19:00 +25°C° 0 mm 3 mps 600 mmHg 12%
    20:00 +24°C° 0 mm 3 mps 600 mmHg 14%
    21:00 +23°C° 0 mm 2 mps 600 mmHg 15%
    22:00 +21°C° 0 mm 2 mps 600 mmHg 17%
    23:00 +21°C° 0 mm 2 mps 600 mmHg 18%
    Show more